,,,PA_Meas_PMT16A,,PR_Meas_QMR101_102,,RH_Meas_QMH101,,SR_Meas_QMS101,,TA_Meas_QMH101,,GenWind,,GenWind,
date,time,status,PA,status,PR,status,RH,status,SR,status,TA,status,DirAvg,status,SpdAvg,
2011-02-28, 00:00:04,VALID,997.842,VALID,0,VALID,91.1816,VALID,0,VALID,23.9939,VALID,140,VALID,0.710547,
2011-02-28, 00:01:04,VALID,997.829,VALID,0,VALID,91.0595,VALID,0,VALID,23.9939,VALID,140,VALID,0.403516,
2011-02-28, 00:02:04,VALID,997.846,VALID,0,VALID,90.9603,VALID,0,VALID,24.0134,VALID,140,VALID,0.0117188,
2011-02-28, 00:03:04,VALID,997.827,VALID,0,VALID,90.8688,VALID,0,VALID,23.9939,VALID,140,VALID,0.0175781,
2011-02-28, 00:04:04,VALID,997.837,VALID,0,VALID,90.8154,VALID,0,VALID,23.9921,VALID,140,VALID,0,
2011-02-28, 00:05:04,VALID,997.812,VALID,0,VALID,90.823,VALID,0,VALID,23.9939,VALID,140,VALID,0.0210938,
2011-02-28, 00:06:04,VALID,997.752,VALID,0,VALID,90.8535,VALID,0,VALID,23.9939,VALID,140,VALID,0.238672,
2011-02-28, 00:07:04,VALID,997.749,VALID,0,VALID,90.8764,VALID,0,VALID,24.0134,VALID,140,VALID,0.328906,
2011-02-28, 00:08:04,VALID,997.781,VALID,0,VALID,90.8535,VALID,0,VALID,23.9939,VALID,140,VALID,0.254297,
2011-02-28, 00:09:04,VALID,997.803,VALID,0,VALID,90.7925,VALID,0,VALID,23.9549,VALID,93,VALID,0.640625,
2011-02-28, 00:10:04,VALID,997.805,VALID,0,VALID,90.6246,VALID,0,VALID,23.8768,VALID,1,VALID,1.02266,
2011-02-28, 00:11:04,VALID,997.768,VALID,0,VALID,90.556,VALID,0,VALID,23.8183,VALID,13,VALID,1.04141,
2011-02-28, 00:12:04,VALID,997.766,VALID,0,VALID,90.556,VALID,0,VALID,23.7793,VALID,13,VALID,1.08164,
2011-02-28, 00:13:04,VALID,997.733,VALID,0,VALID,90.6399,VALID,0,VALID,23.7207,VALID,16,VALID,1.05117,
2011-02-28, 00:14:04,VALID,997.707,VALID,0,VALID,90.8154,VALID,0,VALID,23.7012,VALID,19,VALID,0.923828,
2011-02-28, 00:15:04,VALID,997.708,VALID,0,VALID,90.9451,VALID,0,VALID,23.7012,VALID,19,VALID,0.730859,
2011-02-28, 00:16:04,VALID,997.709,VALID,0,VALID,91.0519,VALID,0,VALID,23.6817,VALID,19,VALID,0.573828,
2011-02-28, 00:17:04,VALID,997.665,VALID,0,VALID,91.174,VALID,0,VALID,23.6817,VALID,19,VALID,0.570703,
2011-02-28, 00:18:04,VALID,997.628,VALID,0,VALID,91.2503,VALID,0,VALID,23.6817,VALID,19,VALID,0.576563,
2011-02-28, 00:19:04,VALID,997.629,VALID,0,VALID,91.2579,VALID,0,VALID,23.6622,VALID,19,VALID,0.589844,
2011-02-28, 00:20:04,VALID,997.66,VALID,0,VALID,91.2045,VALID,0,VALID,23.5823,VALID,19,VALID,0.496094,
2011-02-28, 00:21:04,VALID,997.663,VALID,0,VALID,91.1816,VALID,0,VALID,23.5451,VALID,19,VALID,0.514844,
2011-02-28, 00:22:04,VALID,997.652,VALID,0,VALID,91.2503,VALID,0,VALID,23.5451,VALID,19,VALID,0.611719,
2011-02-28, 00:23:04,VALID,997.676,VALID,0,VALID,91.3647,VALID,0,VALID,23.5451,VALID,19,VALID,0.859766,
2011-02-28, 00:24:04,VALID,997.682,VALID,0,VALID,91.4715,VALID,0,VALID,23.5646,VALID,19,VALID,0.939453,
2011-02-28, 00:25:04,VALID,997.7,VALID,0,VALID,91.5478,VALID,0,VALID,23.5646,VALID,19,VALID,0.982422,
2011-02-28, 00:26:04,VALID,997.736,VALID,0,VALID,91.6165,VALID,0,VALID,23.5646,VALID,16,VALID,1.15977,
2011-02-28, 00:27:04,VALID,997.76,VALID,0,VALID,91.7004,VALID,0,VALID,23.5841,VALID,36,VALID,1.15625,
2011-02-28, 00:28:04,VALID,997.723,VALID,0,VALID,91.7996,VALID,0,VALID,23.6232,VALID,36,VALID,1.13398,
2011-02-28, 00:29:04,VALID,997.719,VALID,0,VALID,91.8454,VALID,0,VALID,23.6427,VALID,36,VALID,0.969531,
2011-02-28, 00:30:04,VALID,997.701,VALID,0,VALID,91.8911,VALID,0,VALID,23.6622,VALID,36,VALID,0.534766,
2011-02-28, 00:31:04,VALID,997.686,VALID,0,VALID,91.8988,VALID,0,VALID,23.664,VALID,13,VALID,0.964063,
2011-02-28, 00:32:04,VALID,997.689,VALID,0,VALID,91.9217,VALID,0,VALID,23.6622,VALID,14,VALID,1.33086,
2011-02-28, 00:33:04,VALID,997.711,VALID,0,VALID,91.914,VALID,0,VALID,23.6817,VALID,20,VALID,1.26328,
2011-02-28, 00:34:04,VALID,997.665,VALID,0,VALID,91.914,VALID,0,VALID,23.6817,VALID,30,VALID,0.825,
2011-02-28, 00:35:04,VALID,997.684,VALID,0,VALID,91.9064,VALID,0,VALID,23.7012,VALID,44,VALID,0.957422,
2011-02-28, 00:36:04,VALID,997.694,VALID,0,VALID,91.914,VALID,0,VALID,23.7225,VALID,43,VALID,0.439844,
2011-02-28, 00:37:04,VALID,997.699,VALID,0,VALID,91.8911,VALID,0,VALID,23.7207,VALID,311,VALID,0.975391,
2011-02-28, 00:38:04,VALID,997.684,VALID,0,VALID,91.9064,VALID,0,VALID,23.7793,VALID,297,VALID,0.557813,
2011-02-28, 00:39:04,VALID,997.634,VALID,0,VALID,91.9369,VALID,0,VALID,23.7988,VALID,10,VALID,0.735156,
2011-02-28, 00:40:04,VALID,997.635,VALID,0,VALID,91.914,VALID,0,VALID,23.8183,VALID,46,VALID,1.19883,
2011-02-28, 00:41:04,VALID,997.643,VALID,0,VALID,91.8759,VALID,0,VALID,23.8183,VALID,46,VALID,0.289844,
2011-02-28, 00:42:04,VALID,997.662,VALID,0,VALID,91.8148,VALID,0,VALID,23.8573,VALID,46,VALID,0.325391,
2011-02-28, 00:43:04,VALID,997.642,VALID,0,VALID,91.7538,VALID,0,VALID,23.8768,VALID,46,VALID,0.0695312,
2011-02-28, 00:44:04,VALID,997.608,VALID,0,VALID,91.708,VALID,0,VALID,23.8963,VALID,46,VALID,0.632422,
2011-02-28, 00:45:04,VALID,997.625,VALID,0,VALID,91.6546,VALID,0,VALID,23.9354,VALID,69,VALID,0.748438,
2011-02-28, 00:46:04,VALID,997.657,VALID,0,VALID,91.502,VALID,0,VALID,23.9744,VALID,69,VALID,0.550391,
2011-02-28, 00:47:04,VALID,997.639,VALID,0,VALID,91.3113,VALID,0,VALID,23.9549,VALID,46,VALID,0.619141,
2011-02-28, 00:48:04,VALID,997.644,VALID,0,VALID,91.1434,VALID,0,VALID,23.9549,VALID,46,VALID,0.592969,
2011-02-28, 00:49:04,VALID,997.63,VALID,0,VALID,91.0443,VALID,0,VALID,23.9549,VALID,46,VALID,0.653516,
2011-02-28, 00:50:04,VALID,997.6,VALID,0,VALID,90.9985,VALID,0,VALID,23.9549,VALID,46,VALID,0,
2011-02-28, 00:51:04,VALID,997.616,VALID,0,VALID,90.9603,VALID,0,VALID,23.9567,VALID,46,VALID,0,
2011-02-28, 00:52:04,VALID,997.601,VALID,0,VALID,90.9146,VALID,0,VALID,23.9159,VALID,46,VALID,0,
2011-02-28, 00:53:04,VALID,997.62,VALID,0,VALID,90.8917,VALID,0,VALID,23.9159,VALID,46,VALID,0.0863281,
2011-02-28, 00:54:04,VALID,997.585,VALID,0,VALID,90.9222,VALID,0,VALID,23.9159,VALID,46,VALID,0,
2011-02-28, 00:55:04,VALID,997.579,VALID,0,VALID,90.9603,VALID,0,VALID,23.9159,VALID,46,VALID,0,
2011-02-28, 00:56:04,VALID,997.569,VALID,0,VALID,90.9603,VALID,0,VALID,23.8945,VALID,46,VALID,0,
2011-02-28, 00:57:04,VALID,997.551,VALID,0,VALID,90.9756,VALID,0,VALID,23.9159,VALID,46,VALID,0,
2011-02-28, 00:58:04,VALID,997.529,VALID,0,VALID,90.9756,VALID,0,VALID,23.8963,VALID,46,VALID,0.427344,
2011-02-28, 00:59:04,VALID,997.524,VALID,0,VALID,90.9756,VALID,0,VALID,23.9372,VALID,52,VALID,0.684766,
2011-02-28, 01:00:04,VALID,997.515,VALID,0,VALID,90.9603,VALID,0,VALID,23.9159,VALID,76,VALID,0.599609,
2011-02-28, 01:01:04,VALID,997.504,VALID,0,VALID,90.9222,VALID,0,VALID,23.9159,VALID,76,VALID,0.438672,
2011-02-28, 01:02:04,VALID,997.518,VALID,0,VALID,90.9069,VALID,0,VALID,23.9354,VALID,76,VALID,0.0410156,
2011-02-28, 01:03:04,VALID,997.55,VALID,0,VALID,90.8611,VALID,0,VALID,23.9354,VALID,76,VALID,0,
2011-02-28, 01:04:04,VALID,997.555,VALID,0,VALID,90.8306,VALID,0,VALID,23.9354,VALID,76,VALID,0.009375,
2011-02-28, 01:05:04,VALID,997.636,VALID,0,VALID,90.8001,VALID,0,VALID,23.9549,VALID,76,VALID,0.250781,
2011-02-28, 01:06:04,VALID,997.582,VALID,0,VALID,90.7772,VALID,0,VALID,23.9549,VALID,76,VALID,0.0539063,
2011-02-28, 01:07:04,VALID,997.581,VALID,0,VALID,90.7391,VALID,0,VALID,23.9354,VALID,76,VALID,0,
2011-02-28, 01:08:04,VALID,997.568,VALID,0,VALID,90.7238,VALID,0,VALID,23.9159,VALID,76,VALID,0,
2011-02-28, 01:09:04,VALID,997.524,VALID,0,VALID,90.678,VALID,0,VALID,23.9159,VALID,76,VALID,0,
2011-02-28, 01:10:04,VALID,997.53,VALID,0,VALID,90.6857,VALID,0,VALID,23.8963,VALID,76,VALID,0,
2011-02-28, 01:11:04,VALID,997.511,VALID,0,VALID,90.7314,VALID,0,VALID,23.8963,VALID,76,VALID,0,
2011-02-28, 01:12:04,VALID,997.493,VALID,0,VALID,90.7849,VALID,0,VALID,23.8963,VALID,76,VALID,0,
2011-02-28, 01:13:04,VALID,997.47,VALID,0,VALID,90.7925,VALID,0,VALID,23.875,VALID,76,VALID,0,
2011-02-28, 01:14:04,VALID,997.486,VALID,0,VALID,90.8306,VALID,0.112286,VALID,23.8555,VALID,76,VALID,0,
2011-02-28, 01:15:04,VALID,997.481,VALID,0,VALID,90.8383,VALID,0,VALID,23.836,VALID,76,VALID,0.105859,
2011-02-28, 01:16:04,VALID,997.477,VALID,0,VALID,90.8611,VALID,0.112286,VALID,23.797,VALID,76,VALID,0.466406,
2011-02-28, 01:17:04,VALID,997.478,VALID,0,VALID,90.9374,VALID,0,VALID,23.797,VALID,64,VALID,0.747656,
2011-02-28, 01:18:04,VALID,997.49,VALID,0,VALID,91.0214,VALID,0,VALID,23.797,VALID,46,VALID,0.729297,
2011-02-28, 01:19:04,VALID,997.528,VALID,0,VALID,91.0061,VALID,0,VALID,23.7793,VALID,46,VALID,0.805469,
2011-02-28, 01:20:04,VALID,997.49,VALID,0,VALID,91.0671,VALID,0,VALID,23.7793,VALID,46,VALID,0.869141,
2011-02-28, 01:21:04,VALID,997.471,VALID,0,VALID,91.1358,VALID,0,VALID,23.7793,VALID,46,VALID,1.15469,
2011-02-28, 01:22:04,VALID,997.47,VALID,0,VALID,91.174,VALID,0,VALID,23.7579,VALID,46,VALID,1.05703,
2011-02-28, 01:23:04,VALID,997.473,VALID,0,VALID,91.1663,VALID,0.112286,VALID,23.7384,VALID,46,VALID,0.751953,
2011-02-28, 01:24:04,VALID,997.444,VALID,0,VALID,91.1511,VALID,0,VALID,23.6994,VALID,46,VALID,0.573047,
2011-02-28, 01:25:04,VALID,997.464,VALID,0,VALID,91.1663,VALID,0,VALID,23.6604,VALID,2,VALID,0.959766,
2011-02-28, 01:26:04,VALID,997.449,VALID,0,VALID,91.3037,VALID,0,VALID,23.6799,VALID,2,VALID,0.780469,
2011-02-28, 01:27:04,VALID,997.424,VALID,0,VALID,91.3952,VALID,0,VALID,23.6799,VALID,2,VALID,0.600391,
2011-02-28, 01:28:04,VALID,997.445,VALID,0,VALID,91.4715,VALID,0,VALID,23.7012,VALID,2,VALID,0.644531,
2011-02-28, 01:29:04,VALID,997.413,VALID,0,VALID,91.4791,VALID,0,VALID,23.6799,VALID,2,VALID,0.246094,
2011-02-28, 01:30:04,VALID,997.394,VALID,0,VALID,91.5402,VALID,0,VALID,23.6604,VALID,2,VALID,0.221094,
2011-02-28, 01:31:04,VALID,997.344,VALID,0,VALID,91.5478,VALID,0,VALID,23.6622,VALID,2,VALID,0.322266,
2011-02-28, 01:32:04,VALID,997.327,VALID,0,VALID,91.5783,VALID,0,VALID,23.6427,VALID,2,VALID,0.367969,
2011-02-28, 01:33:04,VALID,997.294,VALID,0,VALID,91.586,VALID,0,VALID,23.6427,VALID,2,VALID,0.593359,
2011-02-28, 01:34:04,VALID,997.286,VALID,0,VALID,91.6012,VALID,0,VALID,23.6214,VALID,91,VALID,0.882422,
2011-02-28, 01:35:04,VALID,997.295,VALID,0,VALID,91.6623,VALID,0,VALID,23.7207,VALID,91,VALID,0.775391,
2011-02-28, 01:36:04,VALID,997.284,VALID,0,VALID,91.6775,VALID,0,VALID,23.7402,VALID,91,VALID,0.502344,
2011-02-28, 01:37:04,VALID,997.247,VALID,0,VALID,91.6394,VALID,0,VALID,23.7402,VALID,91,VALID,0.501953,
2011-02-28, 01:38:04,VALID,997.267,VALID,0,VALID,91.5326,VALID,0,VALID,23.6994,VALID,91,VALID,0,
2011-02-28, 01:39:04,VALID,997.268,VALID,0,VALID,91.4105,VALID,0,VALID,23.6817,VALID,91,VALID,0,
2011-02-28, 01:40:04,VALID,997.25,VALID,0,VALID,91.4028,VALID,0.112286,VALID,23.6799,VALID,91,VALID,0.415625,
2011-02-28, 01:41:04,VALID,997.254,VALID,0,VALID,91.4257,VALID,0,VALID,23.6799,VALID,91,VALID,0.771875,
2011-02-28, 01:42:04,VALID,997.292,VALID,0,VALID,91.441,VALID,0,VALID,23.7012,VALID,91,VALID,0.696094,
2011-02-28, 01:43:04,VALID,997.277,VALID,0,VALID,91.4181,VALID,0,VALID,23.7012,VALID,91,VALID,0.295312,
2011-02-28, 01:44:04,VALID,997.267,VALID,0,VALID,91.38,VALID,0,VALID,23.7012,VALID,91,VALID,0.277344,
2011-02-28, 01:45:04,VALID,997.234,VALID,0,VALID,91.3494,VALID,0,VALID,23.6817,VALID,91,VALID,0.1125,
2011-02-28, 01:46:04,VALID,997.262,VALID,0,VALID,91.4028,VALID,0,VALID,23.7012,VALID,91,VALID,0.0925781,
2011-02-28, 01:47:04,VALID,997.273,VALID,0,VALID,91.4028,VALID,0,VALID,23.6799,VALID,91,VALID,0.342187,
2011-02-28, 01:48:04,VALID,997.267,VALID,0,VALID,91.4257,VALID,0,VALID,23.6799,VALID,91,VALID,0.580078,
2011-02-28, 01:49:04,VALID,997.267,VALID,0,VALID,91.4715,VALID,0,VALID,23.7384,VALID,91,VALID,0.61875,
2011-02-28, 01:50:04,VALID,997.266,VALID,0,VALID,91.4563,VALID,0,VALID,23.7597,VALID,91,VALID,0.595703,
2011-02-28, 01:51:04,VALID,997.296,VALID,0,VALID,91.38,VALID,0.112286,VALID,23.7384,VALID,91,VALID,0.251172,
2011-02-28, 01:52:04,VALID,997.288,VALID,0,VALID,91.3418,VALID,0,VALID,23.7775,VALID,91,VALID,0.350391,
2011-02-28, 01:53:04,VALID,997.302,VALID,0,VALID,91.3342,VALID,0,VALID,23.7775,VALID,91,VALID,0.385156,
2011-02-28, 01:54:04,VALID,997.269,VALID,0,VALID,91.3113,VALID,0,VALID,23.797,VALID,91,VALID,0.480859,
2011-02-28, 01:55:04,VALID,997.274,VALID,0,VALID,91.3189,VALID,0,VALID,23.8165,VALID,91,VALID,0.526172,
2011-02-28, 01:56:04,VALID,997.265,VALID,0,VALID,91.2503,VALID,0,VALID,23.8555,VALID,91,VALID,0.300781,
2011-02-28, 01:57:04,VALID,997.276,VALID,0,VALID,91.2045,VALID,0,VALID,23.8555,VALID,91,VALID,0,
2011-02-28, 01:58:04,VALID,997.247,VALID,0,VALID,91.1358,VALID,0.112286,VALID,23.8555,VALID,91,VALID,0.234766,
2011-02-28, 01:59:04,VALID,997.227,VALID,0,VALID,91.0595,VALID,0.112286,VALID,23.8555,VALID,91,VALID,0.480859,
2011-02-28, 02:00:04,VALID,997.243,VALID,0,VALID,91.0671,VALID,0.112286,VALID,23.8555,VALID,91,VALID,0.357422,
2011-02-28, 02:01:04,VALID,997.248,VALID,0,VALID,91.0748,VALID,0,VALID,23.875,VALID,91,VALID,0.639453,
2011-02-28, 02:02:04,VALID,997.25,VALID,0,VALID,91.0671,VALID,0,VALID,23.8963,VALID,91,VALID,0.531641,
2011-02-28, 02:03:04,VALID,997.26,VALID,0,VALID,91.0519,VALID,0.112286,VALID,23.8945,VALID,91,VALID,0.727734,
2011-02-28, 02:04:04,VALID,997.289,VALID,0,VALID,91.0748,VALID,0.112286,VALID,23.8945,VALID,107,VALID,0.76875,
2011-02-28, 02:05:04,VALID,997.301,VALID,0,VALID,91.1129,VALID,0,VALID,23.9354,VALID,107,VALID,0.74375,
2011-02-28, 02:06:04,VALID,997.322,VALID,0,VALID,91.1511,VALID,0,VALID,23.9336,VALID,107,VALID,0.517969,
2011-02-28, 02:07:04,VALID,997.309,VALID,0,VALID,91.1968,VALID,0.112286,VALID,23.9549,VALID,107,VALID,0.554688,
2011-02-28, 02:08:04,VALID,997.315,VALID,0,VALID,91.2655,VALID,0,VALID,23.9726,VALID,115,VALID,0.830469,
2011-02-28, 02:09:04,VALID,997.322,VALID,0,VALID,91.3189,VALID,0.112286,VALID,24.0116,VALID,115,VALID,0.800391,
2011-02-28, 02:10:04,VALID,997.318,VALID,0,VALID,91.2884,VALID,0.112286,VALID,24.0329,VALID,115,VALID,1.02734,
2011-02-28, 02:11:04,VALID,997.341,VALID,0,VALID,91.2579,VALID,0.112286,VALID,24.0311,VALID,115,VALID,1.11211,
2011-02-28, 02:12:04,VALID,997.343,VALID,0,VALID,91.2503,VALID,0,VALID,24.072,VALID,115,VALID,0.822656,
2011-02-28, 02:13:04,VALID,997.344,VALID,0,VALID,91.2197,VALID,0,VALID,24.0915,VALID,115,VALID,0.80625,
2011-02-28, 02:14:04,VALID,997.34,VALID,0,VALID,91.1968,VALID,0,VALID,24.0897,VALID,115,VALID,0.953516,
2011-02-28, 02:15:04,VALID,997.315,VALID,0,VALID,91.1663,VALID,0,VALID,24.111,VALID,115,VALID,0.792188,
2011-02-28, 02:16:04,VALID,997.337,VALID,0,VALID,91.1129,VALID,0,VALID,24.1092,VALID,114,VALID,0.820703,
2011-02-28, 02:17:04,VALID,997.289,VALID,0,VALID,91.09,VALID,0,VALID,24.15,VALID,113,VALID,0.684766,
2011-02-28, 02:18:04,VALID,997.297,VALID,0,VALID,91.0595,VALID,0,VALID,24.1287,VALID,113,VALID,0.473828,
2011-02-28, 02:19:04,VALID,997.279,VALID,0,VALID,91.0443,VALID,0,VALID,24.15,VALID,110,VALID,0.942969,
2011-02-28, 02:20:04,VALID,997.293,VALID,0,VALID,91.0519,VALID,0,VALID,24.15,VALID,108,VALID,0.941406,
2011-02-28, 02:21:04,VALID,997.269,VALID,0,VALID,91.0824,VALID,0,VALID,24.15,VALID,110,VALID,1.14648,
2011-02-28, 02:22:04,VALID,997.254,VALID,0,VALID,91.1053,VALID,0,VALID,24.1696,VALID,105,VALID,0.860156,
2011-02-28, 02:23:04,VALID,997.217,VALID,0,VALID,91.1282,VALID,0,VALID,24.1891,VALID,105,VALID,0.301953,
2011-02-28, 02:24:04,VALID,997.178,VALID,0,VALID,91.0671,VALID,0,VALID,24.1696,VALID,105,VALID,0.469922,
2011-02-28, 02:25:04,VALID,997.163,VALID,0,VALID,91.0137,VALID,0,VALID,24.15,VALID,39,VALID,0.746484,
2011-02-28, 02:26:04,VALID,997.093,VALID,0,VALID,90.9527,VALID,0,VALID,24.111,VALID,34,VALID,0.701172,
2011-02-28, 02:27:04,VALID,997.063,VALID,0,VALID,90.823,VALID,0,VALID,24.111,VALID,34,VALID,0.877344,
2011-02-28, 02:28:04,VALID,997.075,VALID,0,VALID,90.762,VALID,0,VALID,24.072,VALID,43,VALID,1.01992,
2011-02-28, 02:29:04,VALID,997.072,VALID,0,VALID,90.7314,VALID,0,VALID,24.072,VALID,43,VALID,0.948047,
2011-02-28, 02:30:04,VALID,997.053,VALID,0,VALID,90.7009,VALID,0,VALID,24.072,VALID,43,VALID,0.951563,
2011-02-28, 02:31:04,VALID,997.054,VALID,0,VALID,90.6857,VALID,0,VALID,24.072,VALID,43,VALID,0.773828,
2011-02-28, 02:32:04,VALID,997.027,VALID,0,VALID,90.6399,VALID,0,VALID,24.0525,VALID,34,VALID,0.659766,
2011-02-28, 02:33:04,VALID,997.006,VALID,0,VALID,90.6399,VALID,0,VALID,24.0329,VALID,34,VALID,0.648828,
2011-02-28, 02:34:04,VALID,996.96,VALID,0,VALID,90.6628,VALID,0,VALID,23.9921,VALID,34,VALID,0.535547,
2011-02-28, 02:35:04,VALID,996.94,VALID,0,VALID,90.6933,VALID,0,VALID,23.9939,VALID,34,VALID,0.393359,
2011-02-28, 02:36:04,VALID,996.917,VALID,0,VALID,90.7162,VALID,0,VALID,23.9744,VALID,34,VALID,0.186328,
2011-02-28, 02:37:04,VALID,996.926,VALID,0,VALID,90.7696,VALID,0,VALID,23.9549,VALID,34,VALID,0,
2011-02-28, 02:38:04,VALID,996.911,VALID,0,VALID,90.8611,VALID,0,VALID,23.9354,VALID,34,VALID,0.0546875,
2011-02-28, 02:39:04,VALID,996.933,VALID,0,VALID,90.968,VALID,0,VALID,23.9549,VALID,34,VALID,0.625391,
2011-02-28, 02:40:04,VALID,996.911,VALID,0,VALID,91.0595,VALID,0,VALID,23.9549,VALID,34,VALID,0.627734,
2011-02-28, 02:41:04,VALID,996.944,VALID,0,VALID,91.1511,VALID,0,VALID,23.9744,VALID,34,VALID,0.703125,
2011-02-28, 02:42:04,VALID,996.921,VALID,0,VALID,91.2197,VALID,0,VALID,23.9744,VALID,34,VALID,0.641016,
2011-02-28, 02:43:04,VALID,996.924,VALID,0,VALID,91.235,VALID,0,VALID,23.9744,VALID,34,VALID,0.413672,
2011-02-28, 02:44:04,VALID,996.881,VALID,0,VALID,91.235,VALID,0,VALID,23.9744,VALID,34,VALID,0.342969,
2011-02-28, 02:45:04,VALID,996.866,VALID,0,VALID,91.2121,VALID,0,VALID,23.9549,VALID,34,VALID,0.488672,
2011-02-28, 02:46:04,VALID,996.844,VALID,0,VALID,91.2197,VALID,0,VALID,23.9549,VALID,38,VALID,0.760156,
2011-02-28, 02:47:04,VALID,996.85,VALID,0,VALID,91.1968,VALID,0,VALID,23.9549,VALID,60,VALID,0.580859,
2011-02-28, 02:48:04,VALID,996.875,VALID,0,VALID,91.1663,VALID,0,VALID,23.9354,VALID,60,VALID,0.129688,
2011-02-28, 02:49:04,VALID,996.892,VALID,0,VALID,91.1129,VALID,0,VALID,23.8963,VALID,60,VALID,0.175391,
2011-02-28, 02:50:04,VALID,996.923,VALID,0,VALID,91.1129,VALID,0,VALID,23.8768,VALID,60,VALID,0,
2011-02-28, 02:51:04,VALID,996.935,VALID,0,VALID,91.1587,VALID,0,VALID,23.8573,VALID,60,VALID,0.0210938,
2011-02-28, 02:52:04,VALID,996.964,VALID,0,VALID,91.2426,VALID,0,VALID,23.8768,VALID,60,VALID,0.331641,
2011-02-28, 02:53:04,VALID,996.981,VALID,0,VALID,91.2884,VALID,0,VALID,23.8555,VALID,60,VALID,0.153125,
2011-02-28, 02:54:04,VALID,997.006,VALID,0,VALID,91.2731,VALID,0,VALID,23.8768,VALID,60,VALID,0.532422,
2011-02-28, 02:55:04,VALID,996.998,VALID,0,VALID,91.3342,VALID,0,VALID,23.875,VALID,60,VALID,0.766016,
2011-02-28, 02:56:04,VALID,996.99,VALID,0,VALID,91.3571,VALID,0,VALID,23.8945,VALID,60,VALID,0.805469,
2011-02-28, 02:57:04,VALID,997.032,VALID,0,VALID,91.3266,VALID,0.112286,VALID,23.9354,VALID,60,VALID,0.655859,
2011-02-28, 02:58:04,VALID,997.024,VALID,0,VALID,91.2731,VALID,0,VALID,23.9549,VALID,60,VALID,0.438281,
2011-02-28, 02:59:04,VALID,997.043,VALID,0,VALID,91.174,VALID,0,VALID,23.9549,VALID,86,VALID,0.645703,
2011-02-28, 03:00:04,VALID,997.03,VALID,0,VALID,91.0443,VALID,0,VALID,23.9531,VALID,93,VALID,0.634766,
2011-02-28, 03:01:04,VALID,997.004,VALID,0,VALID,90.9603,VALID,0,VALID,23.9744,VALID,93,VALID,0.673437,
2011-02-28, 03:02:04,VALID,997.046,VALID,0,VALID,90.9298,VALID,0,VALID,23.9744,VALID,93,VALID,0.433203,
2011-02-28, 03:03:04,VALID,997.032,VALID,0,VALID,90.8383,VALID,0,VALID,23.9744,VALID,93,VALID,0.053125,
2011-02-28, 03:04:04,VALID,997.021,VALID,0,VALID,90.7391,VALID,0,VALID,23.914,VALID,93,VALID,0.263672,
2011-02-28, 03:05:04,VALID,997.008,VALID,0,VALID,90.7085,VALID,0.112286,VALID,23.9336,VALID,93,VALID,0.501172,
2011-02-28, 03:06:04,VALID,997.021,VALID,0,VALID,90.7467,VALID,0,VALID,23.9354,VALID,93,VALID,0.305469,
2011-02-28, 03:07:04,VALID,997.034,VALID,0,VALID,90.8001,VALID,0,VALID,23.914,VALID,93,VALID,0.289063,
2011-02-28, 03:08:04,VALID,997.018,VALID,0,VALID,90.8535,VALID,0,VALID,23.8945,VALID,93,VALID,0.475781,
2011-02-28, 03:09:04,VALID,997.005,VALID,0,VALID,90.9451,VALID,0,VALID,23.8945,VALID,93,VALID,0.504687,
2011-02-28, 03:10:04,VALID,997.004,VALID,0,VALID,91.0443,VALID,0,VALID,23.8963,VALID,92,VALID,0.519531,
2011-02-28, 03:11:04,VALID,997.021,VALID,0,VALID,91.0671,VALID,0,VALID,23.8768,VALID,92,VALID,0.537109,
2011-02-28, 03:12:04,VALID,997.03,VALID,0,VALID,91.1282,VALID,0,VALID,23.8573,VALID,92,VALID,0.516406,
2011-02-28, 03:13:04,VALID,997.035,VALID,0,VALID,91.235,VALID,0,VALID,23.8573,VALID,92,VALID,0.707812,
2011-02-28, 03:14:04,VALID,997.038,VALID,0,VALID,91.3037,VALID,0,VALID,23.8573,VALID,92,VALID,0.358984,
2011-02-28, 03:15:04,VALID,997.048,VALID,0,VALID,91.3647,VALID,0,VALID,23.8573,VALID,92,VALID,0.369141,
2011-02-28, 03:16:04,VALID,997.076,VALID,0,VALID,91.3952,VALID,0,VALID,23.8378,VALID,92,VALID,0.264453,
2011-02-28, 03:17:04,VALID,997.101,VALID,0,VALID,91.4334,VALID,0,VALID,23.836,VALID,92,VALID,0.364062,
2011-02-28, 03:18:04,VALID,997.138,VALID,0,VALID,91.4944,VALID,0,VALID,23.8573,VALID,92,VALID,0.511328,
2011-02-28, 03:19:04,VALID,997.139,VALID,0,VALID,91.5554,VALID,0,VALID,23.8573,VALID,92,VALID,0.638672,
2011-02-28, 03:20:04,VALID,997.169,VALID,0,VALID,91.5936,VALID,0,VALID,23.8768,VALID,87,VALID,0.843359,
2011-02-28, 03:21:04,VALID,997.185,VALID,0,VALID,91.6088,VALID,0,VALID,23.8768,VALID,78,VALID,0.820703,
2011-02-28, 03:22:04,VALID,997.205,VALID,0,VALID,91.6394,VALID,0,VALID,23.836,VALID,78,VALID,1.04141,
2011-02-28, 03:23:04,VALID,997.199,VALID,0,VALID,91.647,VALID,0,VALID,23.8573,VALID,78,VALID,0.875391,
2011-02-28, 03:24:04,VALID,997.21,VALID,0,VALID,91.6546,VALID,0,VALID,23.8378,VALID,78,VALID,0.664063,
2011-02-28, 03:25:04,VALID,997.23,VALID,0,VALID,91.6012,VALID,0,VALID,23.8378,VALID,67,VALID,0.975,
2011-02-28, 03:26:04,VALID,997.24,VALID,0,VALID,91.6088,VALID,0,VALID,23.8378,VALID,86,VALID,0.953125,
2011-02-28, 03:27:04,VALID,997.218,VALID,0,VALID,91.5707,VALID,0.112286,VALID,23.8378,VALID,78,VALID,1.22422,
2011-02-28, 03:28:04,VALID,997.222,VALID,0,VALID,91.5402,VALID,0,VALID,23.8183,VALID,81,VALID,1.07187,
2011-02-28, 03:29:04,VALID,997.239,VALID,0,VALID,91.4944,VALID,0,VALID,23.7775,VALID,67,VALID,0.997266,
2011-02-28, 03:30:04,VALID,997.211,VALID,0,VALID,91.3876,VALID,0,VALID,23.7793,VALID,47,VALID,0.75625,
2011-02-28, 03:31:04,VALID,997.233,VALID,0,VALID,91.3342,VALID,0,VALID,23.7402,VALID,47,VALID,0.531641,
2011-02-28, 03:32:04,VALID,997.234,VALID,0,VALID,91.2655,VALID,0,VALID,23.7207,VALID,47,VALID,0.544141,
2011-02-28, 03:33:04,VALID,997.224,VALID,0,VALID,91.2808,VALID,0,VALID,23.7012,VALID,47,VALID,0.342969,
2011-02-28, 03:34:04,VALID,997.207,VALID,0,VALID,91.3037,VALID,0,VALID,23.7012,VALID,47,VALID,0.34375,
2011-02-28, 03:35:04,VALID,997.179,VALID,0,VALID,91.3571,VALID,0,VALID,23.7012,VALID,47,VALID,0.290234,
2011-02-28, 03:36:04,VALID,997.177,VALID,0,VALID,91.3952,VALID,0,VALID,23.7012,VALID,51,VALID,0.562109,
2011-02-28, 03:37:04,VALID,997.157,VALID,0,VALID,91.441,VALID,0,VALID,23.7207,VALID,68,VALID,0.230469,
2011-02-28, 03:38:04,VALID,997.148,VALID,0,VALID,91.441,VALID,0,VALID,23.7207,VALID,68,VALID,0.0882813,
2011-02-28, 03:39:04,VALID,997.149,VALID,0,VALID,91.4334,VALID,0,VALID,23.7012,VALID,68,VALID,0,
2011-02-28, 03:40:04,VALID,997.148,VALID,0,VALID,91.441,VALID,0,VALID,23.7207,VALID,68,VALID,0,
2011-02-28, 03:41:04,VALID,997.172,VALID,0,VALID,91.4639,VALID,0,VALID,23.7189,VALID,68,VALID,0,
2011-02-28, 03:42:04,VALID,997.175,VALID,0,VALID,91.4944,VALID,0,VALID,23.7207,VALID,68,VALID,0,
2011-02-28, 03:43:04,VALID,997.205,VALID,0,VALID,91.502,VALID,0,VALID,23.7597,VALID,351,VALID,0.563281,
2011-02-28, 03:44:04,VALID,997.202,VALID,0,VALID,91.4944,VALID,0,VALID,23.7793,VALID,334,VALID,0.675781,
2011-02-28, 03:45:04,VALID,997.197,VALID,0,VALID,91.5249,VALID,0,VALID,23.7988,VALID,334,VALID,0.527344,
2011-02-28, 03:46:04,VALID,997.156,VALID,0,VALID,91.5402,VALID,0,VALID,23.8183,VALID,334,VALID,0.122656,
2011-02-28, 03:47:04,VALID,997.148,VALID,0,VALID,91.5097,VALID,0,VALID,23.8183,VALID,334,VALID,0,